Find KUIPER-00415

NORAD ID: 68930 Int'l Des: 2026-098M Owner: KUIP Country: US Constellation: amazon-leo operational
LEOCIRCULAR

リアルタイム位置

3D地球を読み込み中...

KUIPER-00415について

説明を読み込み中...

次回通過

Passes for default location (London). Set your location on the main map for personalized predictions.

高度履歴

Loading altitude history...

軌道要素

1 68930U 26098M 26125.83336806 .00059097 00000-0 17697-2 0 9996
2 68930 51.8787 271.8082 0010380 355.8078 289.3574 15.33906021 1672
Epoch: May 5, 2026 • Age: 7 hours

現在のステータス

高度 457.9 km
速度 7.64 km/s
衛星直下点 17.94°N, 20.93°E
打ち上げ日 Apr 30, 2026
運用期間 6 days
タイプ internet

技術仕様

分類 Payload
質量 490.00 kg
乾燥質量 490.00 kg
総質量 490.00 kg
長さ 1.80 m
直径 0.70 m
スパン 5.00 m
形状 Box + 2 pan
製造者 KUIP
バスタイプ Kuiper
フェーズステータス In Orbit
所有者/国 KUIP/US

Most Searched